User: anonymous   Login
Location: Unspecified
(0.0000°N, 0.0000°E)
Time: 05:21:03
(UTC+00:00)
Language:

GOES 4 - Orbit

View from above orbital plane
View from above orbital plane
View from above satellite
View from above satellite

Ground track
Ground track

The orbit data is extracted from the following two-line orbital elements,

1 11964U 80074A   18344.31537066 -.00000301  00000-0  00000+0 0  9995
2 11964  13.4777 328.9139 0034470  24.5609 332.2673  0.99232168100378
Epoch (UTC): 10 December 2018 07:34:08
Eccentricity: 0.0034470
inclination: 13.4777°
perigee height: 35934 km
apogee height: 36226 km
right ascension of ascending node: 328.9139°
argument of perigee: 24.5609°
revolutions per day: 0.99232168
mean anomaly at epoch: 332.2673°
orbit number at epoch: 10037

The dashed part of the orbit path shows where the satellite is in the earth's shadow,  

DLR